Starlink 36262

operational
NORAD ID: 67201 Int'l Des: 2025-304 Owner: SPXS Country: US Constellation: starlink
LEOCIRCULAR

Starlink 36262について

説明を読み込み中...

リアルタイム位置

3D地球を読み込み中...

次回通過

高度履歴

Altitude vs Time

uPlot chart will show altitude changes over time

軌道要素

1 67201C 25304K 25352.76437500 .00703130 00000+0 96852-3 0 3528
2 67201 69.9983 31.2813 0009129 254.9589 216.9134 16.05070349 15
Epoch: Dec 18, 2025 • Age: 58 hours

現在のステータス

高度 258.6 km
速度 7.75 km/s
衛星直下点 -24.99°S, 17.07°W
打ち上げ日 Dec 17, 2025
運用期間 2 days
タイプ internet

技術仕様

分類 Payload
質量 575.00 kg
乾燥質量 530.00 kg
総質量 575.00 kg
長さ 0.30 m
直径 4.10 m
スパン 29.00 m
形状 Box + pan
製造者 SPXS
バスタイプ Starlink V2MO
フェーズステータス In Orbit
所有者/国 SPXS/US

大規模コンステレーション

Loading constellations...